Regional Weather Roundup
Issued by NWS Charleston, SC

Current Version | Previous Version | Text Only | Print | Product List | Glossary Off
Versions: 1 2 3 4 5 6 7 8 9 10 11 12 13 14 15 16 17 18 19 20 21 22 23 24 25 26 27 28 29 30 31 32 33 34 35 36 37 38 39 40 41 42 43 44 45 46 47 48 49 50
000 ASUS42 KCHS 030327 RWRCHS Regional Weather Roundup National Weather Service Charleston SC 1100 PM EDT TUE JUN 02 2020 NOTE: "fair" indicates few or no clouds below 12,000 feet with no significant weather and/or obstructions to visibility. Not all stations are quality controlled. Use data with caution, especially dewpoint observations. SCZ027-030-031-034>040-042>050-030400- ...Southeast South Carolina... CITY SKY/WX TMP DP RH WIND PRES REMARKS N Charleston CLEAR 71 62 73 SW8 30.14R Waterfront Prk N/A 75 66 73 SW7 29.99R Mount Pleasant FAIR 73 64 73 VRB6 30.14S Johns Island FAIR 73 64 73 S7 30.15S Pinopolis N/A 73 64 73 S7 30.05R Moncks Corner FAIR 70 63 78 SW8 30.13S Summerville MOCLDY 70 64 83 S6 30.13S Beaufort MCAS MOCLDY 75 64 68 S6 30.15R Beaufort Arpt FAIR 73 63 68 MISG 30.15S Hilton Head Is MOCLDY 75 63 64 S7 30.16S Walterboro PTCLDY 70 63 78 S6 30.15S Allendale FAIR 72 63 73 CALM 30.13S ...Southern Midlands and Pee Dee... CITY SKY/WX TMP DP RH WIND PRES REMARKS Georgetown FAIR 70 61 73 SW7 30.14S Kingstree FAIR 72 61 68 S5 30.11S Orangeburg CLEAR 71 61 70 S8 30.12R Barnwell FAIR 73 61 64 S5 30.13S Aiken FAIR 71 58 63 S7 30.13S Manning FAIR 72 63 73 SW9G17 30.12S Columbia CLEAR 73 61 65 SW3 30.09S Sumter CLEAR 72 62 71 S8 30.10S HAZE Florence CLEAR 75 61 61 SW9 30.09R Myrtle Beach CLEAR 74 64 71 SW10 30.12R N Myrtle Beach CLEAR 74 64 71 SW16 30.10R $$ GAZ063-065-086>088-099>101-113>116-118-119-134>141-150-030400- ...Southeast Georgia... CITY SKY/WX TMP DP RH WIND PRES REMARKS Savannah Arpt MOCLDY 71 64 78 S6 30.16R Hunter AAF MOCLDY 73 63 70 S6 30.13S Fort Stewart MOCLDY 71 62 72 CALM 30.15R Statesboro MOCLDY 72 61 68 S7 30.15S Sylvania MOCLDY 72 63 72 S5 30.16R Claxton FAIR 73 63 72 CALM 30.15S Millen FAIR 71 62 74 SW6 30.14R Metter FAIR 69 63 79 S3 30.15S Reidsville NOT AVBL ...CSRA, Central and far Southeast Georgia... CITY SKY/WX TMP DP RH WIND PRES REMARKS Thomson PTCLDY 69 66 90 W3 30.13S Augusta-Bush PTCLDY 71 62 73 S5 30.11R Augusta-Daniel PTCLDY 77 59 53 SW3 30.13R Swainsboro FAIR 72 63 73 S6 30.15S Vidalia MOCLDY 73 59 60 S6 30.15S Eastman FAIR 67 65 90 CALM 30.17R Hazlehurst N/A 74 59 59 S5 30.14S Alma MOCLDY 72 59 63 SE6 30.15R Waycross MOCLDY 72 57 58 SE7 30.16S Jesup FAIR 70 63 78 CALM 30.16S Baxley FAIR 70 59 68 S5 30.16R Brunswick MOCLDY 72 63 73 SE5 30.16S Saint Simons MOCLDY 76 62 62 SE6 30.16R $$ SCZ027-028-034-036>038-045-046-048>050-GAZ119-141-030400- ...Lake and Supplemental Coastal Observations... STATION/POSITION TIME TEMP WIND PRES WAVE SWELL AIR SEA DIR/SP/G HT/PER HT/PER/DIR (UTC) (F) (DEG/KT/KT) (MB) (FT/S) (FT/S/D) Winyah Bay 0245 74 230/ 8 1020.0R Lake Murray 0250 78 230/ 7/ 9 N/A Chrlstn Harbor 0248 75 79 220/ 6/ 9 1020.9R ACE Basin NERRS 0230 74 CALM 1021.0S Fort Pulaski 0248 74 79 190/ 4/ 7 1021.6R Sapelo Island 0300 74 160/ 6 1021.0 $$ ANZ835-935-AMZ111-154-330-350-352-354-370-450-454-472-030400- ...C-MAN and Buoy Observations... STATION/POSITION TIME TEMP WIND PRES WAVE SWELL AIR SEA DIR/SP/G HT/PER HT/PER/DIR (UTC) (F) (DEG/KT/KT) (MB) (FT/S) (FT/S/D) Buoy 41004 0310 76 1020.8 Buoy 41008 0250 76 78 180/ 10/ 12 1021.3R 3/ 9 3/110/ 9 Folly Beach CMAN 0300 76 210/ 16/ 18 1021.3R Capers Nearshore 0308 76 76 220/ 16/ 19 1020.1S Fripp Nearshore NOT AVBL STATION/POSITION TIME TEMP WIND PRES WAVE SWELL AIR SEA DIR/SP/G HT/PER HT/PER/DIR (UTC) (F) (DEG/KT/KT) (MB) (FT/S) (FT/S/D) 5E St. Marys GA 0300 78 N/A 3/ 9 Frying Pan Buoy 0310 76 77 230/ 19/ 23 1019.7 Buoy 41025 0310 76 78 230/ 25/ 31 N/A Cape Lookout NC 0300 75 230/ 13/ 16 1018.6F Buoy 41002 0310 73 80 220/ 8/ 14 1022.4 Buoy 41010 0300 76 100/ 12/ 14 N/A St Augustine FL 0300 77 79 1021.1R $$

USA.gov is the U.S. government's official web portal to all federal, state and local government web resources and services.